[[{"header":{"parameterUnit":"m.s-1","parameterCategory":2,"la1":30.2991,"la2":30.254,"lo1":-89.0895,"lo2":-89.0444,"dy":0.0017,"dx":0.0017,"nx":28,"ny":28,"refTime":"2024-02-06T03:00:00:Z","depth":"0","parameterNumber":2,"parameterNumberName":"U-component_of_CURRENTS"},"data":[0,0,0,0,0,0,0,0,0,0,0,0,0,0,0,0,0,0,0,0,0,0,0,0,0,0,0,0,0,0,0,0,0,0,0,0,0,0,0,0,0,0,0,0,0,0,0,0,0,0,0,0,0,0,0,0,0,0,0.3691,0.3692,0,0.3717,0.3717,0.3717,0.37,0.37,0.37,0.3699,0.3673,0.3672,0.3672,0,0,0,0,0,0,0,0,0,0,0,0,0,0.3626,0.3627,0.3691,0.3692,0.3693,0.3717,0.3717,0.3717,0.37,0.37,0.37,0.3699,0.3673,0.3672,0.3672,0,0,0,0,0,0,0,0,0,0,0,0,0,0.3649,0.3627,0.3691,0.3691,0.3692,0.3717,0.3717,0.3717,0.37,0.37,0.37,0.3699,0.3673,0.3673,0.3672,0.3677,0,0,0.367,0.367,0,0,0,0,0,0,0,0,0.3647,0.365,0.369,0.3691,0.3692,0.3709,0.3684,0.3703,0.3701,0.3692,0.3699,0.3699,0.3684,0.3682,0.3682,0.3676,0.3675,0.367,0.367,0.3669,0.3669,0,0,0,0,0,0,0,0.3646,0.3649,0.3696,0.3691,0.3692,0.369,0.3692,0.3687,0.3685,0.3693,0.3693,0.3704,0.3683,0.3682,0.3681,0.3674,0.367,0.3669,0.3669,0.3669,0.3721,0.3722,0,0,0,0,0,0,0.3653,0.3648,0.3696,0.3698,0.3674,0.3692,0.3694,0.37,0.3686,0.3686,0.3704,0.3703,0.3684,0.3682,0.368,0.3721,0.3669,0.3669,0.3668,0.3719,0.3721,0.3723,0,0,0,0,0,0,0.3652,0.3657,0.3695,0.3677,0.3683,0.3694,0.3701,0.3701,0.3708,0.3697,0.3694,0.3712,0.3683,0.3681,0.3689,0.3718,0.3668,0.3668,0.3717,0.372,0.3722,0.378,0,0,0,0,0,0,0.365,0.3656,0.3661,0.3678,0.3684,0.3723,0.3702,0.3702,0.3717,0.3716,0.3703,0.3699,0.3683,0.369,0.3688,0.3716,0.3667,0.3715,0.3718,0.3721,0.3776,0.3784,0.3791,0,0,0,0,0,0.3647,0.3657,0.3661,0.3667,0.3691,0.3725,0.3728,0.373,0.3719,0.3732,0.3721,0.37,0.371,0.3691,0.3688,0.3717,0.3713,0.3717,0.3721,0.3772,0.3782,0.3791,0,0,0,0,0,0,0.3625,0.3658,0.3662,0.3679,0.3708,0.3724,0.3737,0.3738,0.374,0.3734,0.3714,0.3711,0.3739,0.372,0.3699,0.3745,0.3712,0.3716,0.3752,0.3761,0.3769,0.3778,0.3667,0,0,0,0,0,0.3626,0.3645,0.3676,0.3692,0.3709,0.3724,0.3737,0.3742,0.375,0.375,0.3741,0.3737,0.3754,0.3749,0.3759,0.3769,0.378,0.379,0.3798,0.3805,0.3812,0.3861,0.3874,0.3736,0.3736,0.3736,0,0,0.3621,0.3644,0.3652,0.369,0.3709,0.3735,0.3729,0.3757,0.3774,0.3746,0.3759,0.3769,0.3768,0.3792,0.3802,0.3775,0.3852,0.381,0.3815,0.3819,0.3866,0.388,0.3892,0.3739,0.3738,0.3738,0,0,0.3627,0.3645,0.3664,0.3694,0.3735,0.3747,0.376,0.3784,0.3793,0.3814,0.381,0.3834,0.3837,0.3848,0.3853,0.3908,0.3903,0.3916,0.3945,0.3993,0.4004,0.4015,0.4053,0.4066,0.3905,0.3905,0.3905,0,0.3619,0.3647,0.3676,0.3708,0.3732,0.3755,0.3782,0.38,0.3821,0.3843,0.3827,0.3877,0.3868,0.3916,0.3933,0.3926,0.3951,0.3906,0.4003,0.4013,0.4023,0.4059,0.4073,0.3909,0.3908,0.3908,0.3908,0,0.3641,0.3668,0.3687,0.3731,0.376,0.3791,0.3827,0.3859,0.3871,0.389,0.3949,0.3948,0.398,0.3986,0.3969,0.404,0.4036,0.4018,0.3977,0.404,0.4075,0.4088,0.3913,0.3912,0.3911,0.391,0,0,0.3607,0.3686,0.3689,0.3713,0.3776,0.3795,0.3853,0.3909,0.3948,0.3976,0.4028,0.406,0.4072,0.408,0.4077,0.4103,0.4184,0.4086,0.4087,0.4121,0.4295,0.43,0.4314,0.4187,0.419,0.4192,0.4294,0,0.3613,0.366,0.3707,0.3748,0.3773,0.3835,0.3882,0.3937,0.3987,0.4042,0.4078,0.4118,0.4104,0.4121,0.4157,0.4187,0.4222,0.4158,0.4232,0.4234,0.4228,0.4331,0.4249,0.4335,0.4307,0.4309,0.4311,0,0.3611,0.3645,0.3684,0.3757,0.3775,0.3807,0.3897,0.3949,0.4051,0.4086,0.4158,0.419,0.4257,0.4218,0.4321,0.4286,0.43,0.431,0.4314,0.4307,0.4264,0.4267,0.436,0.4261,0.4331,0.433,0.4328,0,0.3546,0.3624,0.3649,0.3674,0.3762,0.3803,0.3857,0.3961,0.4027,0.4122,0.4181,0.4261,0.4314,0.4359,0.4412,0.4371,0.4517,0.4458,0.4478,0.4477,0.4416,0.4407,0.4418,0.4526,0.4526,0.4526,0.4525,0,0.3524,0.3542,0.362,0.3631,0.3683,0.3757,0.3832,0.3908,0.4028,0.4099,0.4197,0.4275,0.4355,0.4455,0.4462,0.4544,0.457,0.4516,0.4519,0.4435,0.4427,0.4342,0.4276,0.4529,0.4529,0.4528,0.4527,0,0.3451,0.3501,0.3536,0.3621,0.3654,0.3689,0.3823,0.3869,0.4002,0.4107,0.4143,0.4321,0.4451,0.4542,0.4628,0.4624,0.4562,0.4682,0.4581,0.4571,0.4466,0.4407,0.4252,0.4116,0.4715,0.4716,0.4716,0,0.3419,0.3427,0.351,0.3527,0.3568,0.364,0.3682,0.3828,0.3895,0.4124,0.4163,0.4363,0.448,0.4666,0.4707,0.4774,0.4598,0.4701,0.46,0.4485,0.442,0.4204,0.4083,0.4541,0.454,0.454,0.4539,0,0.3357,0.3385,0.341,0.3448,0.3485,0.3546,0.3632,0.3687,0.3852,0.3977,0.4151,0.4284,0.4522,0.46,0.4728,0.4738,0.4499,0.469,0.4598,0.4325,0.4062,0.3925,0.4442,0.4534,0.4535,0.4535,0.4535,0.4536,0.3301,0.3303,0.3326,0.3354,0.3387,0.3416,0.342,0.3533,0.3648,0.379,0.4025,0.4177,0.4429,0.4628,0.461,0.457,0.4467,0.4462,0.4414,0.4215,0.4033,0.4548,0.4624,0.4625,0.4626,0.4626,0.4627,0,0.3212,0.3213,0.3227,0.3235,0.3203,0.3282,0.334,0.3323,0.3383,0.36,0.3764,0.4055,0.4197,0.4339,0.4461,0.434,0.4088,0.4213,0.389,0.3792,0.4306,0.4251,0.4217,0.4217,0.4217,0.4217,0.4217,0.4217,0.316,0.3123,0.3124,0.3038,0.3036,0.2965,0.2965,0.2987,0.3099,0.325,0.342,0.3642,0.4022,0.427,0.4238,0.413,0.3778,0.3646,0.3548,0.3947,0.3965,0.3981,0.3915,0.3811,0.381,0.2904,0.2897,0.2892]},{"header":{"parameterUnit":"m.s-1","parameterCategory":2,"la1":30.2991,"la2":30.254,"lo1":-89.0895,"lo2":-89.0444,"dy":0.0017,"dx":0.0017,"nx":28,"ny":28,"refTime":"2024-02-06T03:00:00:Z","depth":"0","parameterNumber":3,"parameterNumberName":"V-component_of_CURRENTS"},"data":[0,0,0,0,0,0,0,0,0,0,0,0,0,0,0,0,0,0,0,0,0,0,0,0,0,0,0,0,0,0,0,0,0,0,0,0,0,0,0,0,0,0,0,0,0,0,0,0,0,0,0,0,0,0,0,0,0,0,0.0031,0.003,0,-0.0033,-0.0034,-0.0035,-0.0086,-0.0086,-0.0086,-0.0087,-0.021,-0.0213,-0.0216,0,0,0,0,0,0,0,0,0,0,0,0,0,0.0053,0.0053,0.0031,0.003,0.003,-0.0033,-0.0034,-0.0035,-0.0085,-0.0086,-0.0086,-0.0087,-0.0209,-0.0213,-0.0217,0,0,0,0,0,0,0,0,0,0,0,0,0,0.002,0.0053,0.0031,-0.0002,-0.0005,-0.0033,-0.0034,-0.0036,-0.0085,-0.0086,-0.0086,-0.0087,-0.0208,-0.0213,-0.0217,-0.0235,0,0,-0.0231,-0.0233,0,0,0,0,0,0,0,0,0.0022,0.0019,0.0004,0.0001,-0.0003,-0.005,-0.0072,-0.0105,-0.0085,-0.0057,-0.0087,-0.0087,-0.0161,-0.0169,-0.0182,-0.0241,-0.0246,-0.0231,-0.0234,-0.0236,-0.0237,0,0,0,0,0,0,0,0.0025,0.0021,0.0004,0.0003,-0.0001,-0.0033,-0.0037,-0.0078,-0.0108,-0.0059,-0.0063,-0.0067,-0.0164,-0.0177,-0.0185,-0.0248,-0.0231,-0.0235,-0.0238,-0.024,-0.0317,-0.0316,0,0,0,0,0,0,0.004,0.0024,0.0006,0.0002,0.001,-0.0032,-0.0038,-0.0036,-0.0106,-0.0116,-0.0066,-0.0069,-0.017,-0.018,-0.019,-0.0198,-0.0236,-0.024,-0.0243,-0.0317,-0.0316,-0.0316,0,0,0,0,0,0,0.0041,0.0039,0.0008,0.0012,0.0006,-0.0031,-0.003,-0.0037,-0.0051,-0.011,-0.0122,-0.0071,-0.017,-0.0184,-0.0217,-0.0204,-0.0242,-0.0246,-0.0318,-0.0317,-0.0316,-0.0226,0,0,0,0,0,0,0.0042,0.004,0.0046,0.0014,0.0007,0.0002,-0.0029,-0.0038,-0.0051,-0.0056,-0.0119,-0.0131,-0.0172,-0.021,-0.0222,-0.0211,-0.025,-0.0319,-0.0317,-0.0316,-0.0229,-0.0222,-0.0215,0,0,0,0,0,0.0043,0.0061,0.0047,0.0044,0.0017,0.0003,-0.0003,-0.0034,-0.0051,-0.005,-0.0091,-0.0129,-0.0211,-0.0213,-0.0227,-0.0217,-0.0319,-0.0318,-0.0316,-0.0233,-0.0223,-0.0215,0,0,0,0,0,0,0.0076,0.0057,0.004,0.0052,0.0031,-0.0005,-0.0004,-0.0028,-0.006,-0.0063,-0.0124,-0.0139,-0.0163,-0.0202,-0.0203,-0.0235,-0.027,-0.0271,-0.0202,-0.0193,-0.0186,-0.0161,-0.0253,0,0,0,0,0,0.0086,0.0092,0.0066,0.0074,0.0069,0.0032,0.0022,0.0003,-0.0029,-0.0043,-0.0087,-0.0131,-0.0168,-0.0189,-0.0227,-0.0247,-0.0287,-0.0249,-0.0241,-0.0235,-0.0223,-0.0272,-0.0268,-0.0311,-0.0311,-0.0311,0,0,0.01,0.0091,0.0094,0.008,0.0062,0.0069,0.0024,0.002,0.0025,-0.0052,-0.006,-0.011,-0.0167,-0.0186,-0.02,-0.0217,-0.0244,-0.0233,-0.0227,-0.0219,-0.027,-0.0266,-0.0262,-0.031,-0.031,-0.031,0,0,0.0141,0.0126,0.0147,0.0137,0.0121,0.01,0.0102,0.0071,0.0058,0.0039,-0.001,-0.0051,-0.0106,-0.0142,-0.0168,-0.0146,-0.0204,-0.0157,-0.0101,-0.0148,-0.0145,-0.0143,-0.0185,-0.0187,-0.0153,-0.0152,-0.0152,0,0.0159,0.0183,0.0151,0.017,0.0168,0.012,0.0143,0.0126,0.0088,0.0084,0.005,-0.0027,-0.0085,-0.0103,-0.0097,-0.013,-0.0162,-0.0128,-0.0138,-0.0137,-0.0136,-0.018,-0.0184,-0.0148,-0.0148,-0.0149,-0.0149,0,0.0214,0.0234,0.0247,0.0254,0.0245,0.0259,0.0231,0.0232,0.0202,0.0172,0.0145,0.0065,0.0022,-0.0005,-0.0049,-0.0063,-0.009,-0.0123,-0.0157,-0.0126,-0.0175,-0.018,-0.0141,-0.0143,-0.0144,-0.0145,0,0,0.0262,0.0284,0.0291,0.0312,0.0294,0.0299,0.0315,0.0313,0.0337,0.0274,0.0284,0.0199,0.0151,0.0118,0.0056,0.0008,-0.0027,-0.0046,-0.0051,-0.0082,-0.0124,-0.0121,-0.0128,-0.006,-0.0061,-0.0061,-0.0159,0,0.0319,0.0381,0.0366,0.0419,0.0448,0.0416,0.0445,0.0433,0.0401,0.04,0.0312,0.0287,0.0201,0.0181,0.0121,0.0015,-0.0037,0.0003,-0.0155,-0.0159,-0.0156,-0.0132,-0.0082,-0.0163,-0.0165,-0.0166,-0.0167,0,0.0384,0.0417,0.0479,0.0524,0.0535,0.0556,0.0586,0.0601,0.0581,0.0553,0.0499,0.043,0.0356,0.0274,0.0111,0.0144,0.0022,-0.0072,-0.0079,-0.0109,-0.0166,-0.0196,-0.0173,-0.0407,-0.0176,-0.0175,-0.0174,0,0.0445,0.0501,0.0554,0.0564,0.0602,0.0633,0.0654,0.0653,0.069,0.0644,0.0653,0.0543,0.0503,0.0339,0.0151,0.0129,-0.0029,-0.009,-0.0204,-0.0206,-0.021,-0.0211,-0.0424,-0.0209,-0.0209,-0.0209,-0.0208,0,0.0514,0.0562,0.0596,0.0628,0.0722,0.0706,0.0793,0.0797,0.0815,0.0866,0.0739,0.0759,0.0519,0.0404,0.0202,0.0002,0.0007,-0.0184,-0.0226,-0.0177,-0.0173,-0.0415,-0.0537,-0.0212,-0.0211,-0.0211,-0.021,0,0.0574,0.0592,0.0668,0.0724,0.0755,0.0819,0.0907,0.0967,0.0961,0.1022,0.1017,0.0927,0.0778,0.0538,0.0279,0.0092,-0.0238,-0.0198,-0.0117,-0.0148,-0.0476,-0.0592,-0.0833,-0.0922,-0.0346,-0.0346,-0.0347,0,0.0609,0.0654,0.0745,0.0807,0.0837,0.0931,0.101,0.1041,0.1109,0.1139,0.1187,0.1076,0.104,0.0675,0.0318,-0.002,-0.0245,-0.0214,-0.0258,-0.0478,-0.0641,-0.0735,-0.0799,-0.0237,-0.0237,-0.0236,-0.0236,0,0.0679,0.0708,0.0772,0.0906,0.0994,0.1105,0.1216,0.1304,0.1345,0.1414,0.1491,0.1472,0.1135,0.0834,0.0365,0.0123,-0.0353,-0.0215,-0.047,-0.0587,-0.0676,-0.0785,-0.0196,-0.0232,-0.0232,-0.0232,-0.0233,-0.0233,0.0732,0.0795,0.0885,0.1013,0.1122,0.1268,0.1385,0.151,0.1662,0.1795,0.1752,0.1787,0.1316,0.0703,0.0319,-0.033,-0.0356,-0.0533,-0.0659,-0.0739,-0.0812,-0.0205,-0.027,-0.0271,-0.0272,-0.0272,-0.0272,0,0.0797,0.0871,0.099,0.1142,0.1273,0.132,0.1516,0.1646,0.1851,0.2,0.2094,0.1933,0.1338,0.0708,-0.0175,-0.0679,-0.0858,-0.0958,-0.1099,-0.1147,-0.063,-0.0613,-0.0721,-0.0721,-0.0721,-0.072,-0.072,-0.072,0.0834,0.095,0.1012,0.1239,0.1353,0.1542,0.1664,0.187,0.2039,0.2266,0.2349,0.2372,0.1905,0.0261,-0.0886,-0.1151,-0.1495,-0.1571,-0.1772,-0.1447,-0.1418,-0.139,-0.1405,-0.1678,-0.1679,-0.2208,-0.2214,-0.2218]}],[{"header":{"parameterUnit":"m.s-1","parameterCategory":2,"la1":30.2991,"la2":30.254,"lo1":-89.0895,"lo2":-89.0444,"dy":0.0017,"dx":0.0017,"nx":28,"ny":28,"refTime":"2024-02-06T03:00:00:Z","depth":"2","parameterNumber":2,"parameterNumberName":"U-component_of_CURRENTS"},"data":[0,0,0,0,0,0,0,0,0,0,0,0,0,0,0,0,0,0,0,0,0,0,0,0,0,0,0,0,0,0,0,0,0,0,0,0,0,0,0,0,0,0,0,0,0,0,0,0,0,0,0,0,0,0,0,0,0,0,0.3164,0.3165,0,0.3201,0.3201,0.3201,0.3202,0.3202,0.3202,0.3202,0.3205,0.3205,0.3206,0,0,0,0,0,0,0,0,0,0,0,0,0,0.3092,0.3093,0.3164,0.3165,0.3166,0.3201,0.3201,0.3201,0.3202,0.3202,0.3202,0.3202,0.3205,0.3205,0.3206,0,0,0,0,0,0,0,0,0,0,0,0,0,0.3122,0.3094,0.3164,0.3174,0.3175,0.3201,0.3201,0.3201,0.3202,0.3202,0.3202,0.3202,0.3205,0.3205,0.3206,0.3209,0,0,0.3206,0.3206,0,0,0,0,0,0,0,0,0.312,0.3124,0.3171,0.3173,0.3175,0.32,0.3177,0.3204,0.3202,0.3187,0.3202,0.3202,0.3203,0.3204,0.3205,0.3209,0.3209,0.3206,0.3207,0.3207,0.3207,0,0,0,0,0,0,0,0.3118,0.3122,0.3174,0.3172,0.3175,0.3176,0.3179,0.3182,0.3192,0.3189,0.319,0.3201,0.3203,0.3205,0.3205,0.3209,0.3206,0.3207,0.3207,0.3207,0.3281,0.3283,0,0,0,0,0,0,0.3122,0.3121,0.3173,0.3176,0.3151,0.3177,0.3181,0.3189,0.3192,0.3194,0.3201,0.3201,0.3205,0.3205,0.3206,0.3261,0.3207,0.3207,0.3207,0.3279,0.3281,0.3283,0,0,0,0,0,0,0.3121,0.3127,0.3172,0.3152,0.3159,0.3179,0.3188,0.319,0.3206,0.3203,0.3203,0.3216,0.3205,0.3205,0.3226,0.3259,0.3207,0.3207,0.3277,0.328,0.3282,0.3339,0,0,0,0,0,0,0.3118,0.3126,0.3135,0.3153,0.316,0.3203,0.3188,0.3191,0.3214,0.3214,0.3216,0.3215,0.3205,0.3226,0.3226,0.3259,0.3207,0.3275,0.3278,0.3281,0.3335,0.3344,0.3351,0,0,0,0,0,0.3115,0.3128,0.3135,0.3142,0.3172,0.3204,0.3208,0.3219,0.3215,0.323,0.3232,0.3216,0.3249,0.3227,0.3228,0.3261,0.3273,0.3277,0.3281,0.3332,0.3342,0.3351,0,0,0,0,0,0,0.3098,0.3131,0.3138,0.3159,0.3189,0.3206,0.3224,0.3229,0.3242,0.3243,0.3232,0.3232,0.3271,0.3257,0.3235,0.3295,0.3261,0.3266,0.33,0.3309,0.3317,0.3324,0.3208,0,0,0,0,0,0.3101,0.3122,0.3153,0.3173,0.319,0.3209,0.3224,0.3234,0.3248,0.3254,0.3256,0.3264,0.3287,0.329,0.3306,0.3326,0.3335,0.3352,0.336,0.3366,0.3374,0.3421,0.3433,0.3297,0.3297,0.3297,0,0,0.3098,0.3122,0.3133,0.3172,0.3193,0.322,0.3217,0.3249,0.3271,0.3252,0.328,0.3296,0.3303,0.3337,0.3352,0.3327,0.3411,0.3371,0.3377,0.3381,0.3426,0.3439,0.3451,0.33,0.3299,0.3299,0,0,0.3107,0.313,0.3151,0.318,0.3223,0.3237,0.3252,0.328,0.3296,0.3327,0.333,0.3363,0.3381,0.3397,0.3406,0.3466,0.3461,0.3476,0.3509,0.3555,0.3566,0.3576,0.3608,0.3621,0.3469,0.3469,0.3469,0,0.3103,0.3134,0.3163,0.3194,0.322,0.3247,0.3275,0.3298,0.3329,0.3355,0.3346,0.3413,0.3411,0.3466,0.3487,0.3484,0.3506,0.3469,0.3565,0.3575,0.3584,0.3615,0.3628,0.3472,0.3472,0.3471,0.3471,0,0.3124,0.3156,0.3176,0.3222,0.3252,0.3286,0.3324,0.3362,0.3384,0.3406,0.3476,0.3485,0.3527,0.3536,0.3526,0.36,0.3595,0.3578,0.3537,0.3601,0.3629,0.3642,0.3477,0.3475,0.3474,0.3474,0,0,0.3093,0.3174,0.3179,0.3206,0.3272,0.3292,0.3355,0.3415,0.3459,0.3497,0.3557,0.36,0.3618,0.3631,0.3634,0.3662,0.3742,0.3648,0.3649,0.3675,0.3845,0.3813,0.3823,0.3746,0.3749,0.3751,0.3839,0,0.3101,0.3151,0.3197,0.3245,0.3273,0.3337,0.3388,0.3448,0.3503,0.3566,0.3609,0.3661,0.365,0.3676,0.3712,0.3743,0.3778,0.3719,0.3784,0.3786,0.3745,0.3838,0.3548,0.3601,0.3851,0.3853,0.3855,0,0.3099,0.3136,0.3182,0.326,0.3279,0.3313,0.341,0.3468,0.3577,0.3618,0.3697,0.3734,0.3807,0.3773,0.387,0.3838,0.3852,0.3862,0.3865,0.3823,0.3777,0.3578,0.3614,0.3876,0.3874,0.3872,0.3871,0,0.304,0.3121,0.3153,0.3179,0.3273,0.3315,0.3375,0.3484,0.3554,0.3663,0.3725,0.3809,0.3867,0.391,0.3955,0.3922,0.405,0.4,0.3984,0.3981,0.3741,0.3713,0.4065,0.4065,0.4065,0.4065,0.4064,0,0.3019,0.3044,0.3128,0.3143,0.32,0.3278,0.3362,0.3441,0.3569,0.3646,0.3748,0.3824,0.3907,0.3994,0.4002,0.4054,0.4097,0.4017,0.4015,0.3754,0.3728,0.3962,0.3949,0.4068,0.4067,0.4066,0.4066,0,0.2949,0.3005,0.3048,0.3139,0.3173,0.3215,0.3359,0.3411,0.355,0.3662,0.3704,0.387,0.398,0.406,0.414,0.412,0.4156,0.4154,0.3846,0.3806,0.4038,0.4027,0.4143,0.4143,0.4143,0.4143,0.4143,0,0.2919,0.2932,0.3025,0.3048,0.3091,0.3174,0.3224,0.3377,0.3448,0.3674,0.3713,0.3892,0.3977,0.4121,0.4122,0.4158,0.4192,0.3893,0.3773,0.4067,0.4053,0.4042,0.4031,0.3471,0.3465,0.3461,0.3457,0,0.2859,0.2893,0.2924,0.2974,0.3017,0.308,0.3175,0.3236,0.3411,0.3522,0.3671,0.3772,0.394,0.387,0.3951,0.3918,0.3865,0.3804,0.42,0.351,0.3444,0.3427,0.3436,0.3416,0.342,0.3423,0.3426,0.3427,0.2807,0.2812,0.2848,0.2884,0.2927,0.2955,0.2966,0.3077,0.3183,0.3307,0.3502,0.3547,0.3636,0.362,0.3536,0.3475,0.3728,0.3544,0.3552,0.3567,0.3488,0.3427,0.338,0.3384,0.3387,0.339,0.3392,0,0.2722,0.2731,0.2754,0.2774,0.2753,0.2831,0.2891,0.2872,0.2923,0.3077,0.3187,0.3021,0.3025,0.3088,0.2955,0.299,0.2899,0.285,0.2693,0.274,0.2781,0.2653,0.2328,0.2324,0.232,0.2316,0,0,0.2675,0.2646,0.265,0.2583,0.2596,0.2532,0.2534,0.254,0.2608,0.2618,0.2635,0.2888,0.3024,0.2627,0.2612,0.2433,0.2543,0.234,0.3211,0.3075,0.3108,0.3225,0.3091,0,0,0,0,0]},{"header":{"parameterUnit":"m.s-1","parameterCategory":2,"la1":30.2991,"la2":30.254,"lo1":-89.0895,"lo2":-89.0444,"dy":0.0017,"dx":0.0017,"nx":28,"ny":28,"refTime":"2024-02-06T03:00:00:Z","depth":"2","parameterNumber":3,"parameterNumberName":"V-component_of_CURRENTS"},"data":[0,0,0,0,0,0,0,0,0,0,0,0,0,0,0,0,0,0,0,0,0,0,0,0,0,0,0,0,0,0,0,0,0,0,0,0,0,0,0,0,0,0,0,0,0,0,0,0,0,0,0,0,0,0,0,0,0,0,0.0176,0.0176,0,0.0116,0.0115,0.0115,0.007,0.007,0.007,0.0069,-0.0039,-0.0042,-0.0044,0,0,0,0,0,0,0,0,0,0,0,0,0,0.0199,0.0199,0.0176,0.0175,0.0175,0.0116,0.0115,0.0114,0.007,0.007,0.007,0.0069,-0.0038,-0.0042,-0.0045,0,0,0,0,0,0,0,0,0,0,0,0,0,0.0168,0.0199,0.0176,0.0147,0.0144,0.0116,0.0115,0.0114,0.007,0.007,0.0069,0.0069,-0.0037,-0.0041,-0.0045,-0.0062,0,0,-0.0057,-0.0059,0,0,0,0,0,0,0,0,0.017,0.0167,0.0152,0.0149,0.0145,0.0101,0.0084,0.0053,0.007,0.0097,0.0069,0.0069,0.0004,-0.0003,-0.0015,-0.0067,-0.0071,-0.0058,-0.006,-0.0062,-0.0063,0,0,0,0,0,0,0,0.0172,0.0169,0.0151,0.0151,0.0147,0.0118,0.0114,0.0078,0.0052,0.0094,0.0091,0.0087,0.0002,-0.0011,-0.0018,-0.0073,-0.0058,-0.0061,-0.0063,-0.0065,-0.0137,-0.0137,0,0,0,0,0,0,0.0186,0.0172,0.0153,0.0149,0.0158,0.0119,0.0114,0.0115,0.0053,0.0044,0.0087,0.0085,-0.0004,-0.0013,-0.0022,-0.0032,-0.0062,-0.0065,-0.0068,-0.0138,-0.0137,-0.0137,0,0,0,0,0,0,0.0187,0.0185,0.0155,0.016,0.0154,0.0119,0.0121,0.0114,0.0101,0.0048,0.0038,0.0082,-0.0004,-0.0016,-0.0047,-0.0037,-0.0067,-0.0071,-0.0138,-0.0137,-0.0137,-0.0062,0,0,0,0,0,0,0.0188,0.0186,0.0191,0.0161,0.0155,0.0148,0.0121,0.0113,0.01,0.0096,0.004,0.003,-0.0006,-0.004,-0.0051,-0.0043,-0.0074,-0.0139,-0.0138,-0.0137,-0.0065,-0.0059,-0.0053,0,0,0,0,0,0.0189,0.0205,0.0192,0.019,0.0164,0.0149,0.0143,0.0115,0.01,0.0101,0.0064,0.0032,-0.0042,-0.0043,-0.0055,-0.0049,-0.0139,-0.0138,-0.0137,-0.0067,-0.006,-0.0053,0,0,0,0,0,0,0.0219,0.0201,0.0187,0.0196,0.0177,0.0142,0.0143,0.012,0.0092,0.0089,0.0035,0.0022,-0.0,-0.0035,-0.0035,-0.0067,-0.0095,-0.0096,-0.0038,-0.0031,-0.0026,-0.0002,-0.0077,0,0,0,0,0,0.0229,0.0235,0.0209,0.0216,0.021,0.0176,0.0166,0.0149,0.0119,0.0106,0.0067,0.0027,-0.0005,-0.0026,-0.0059,-0.0079,-0.0115,-0.0082,-0.0077,-0.0071,-0.006,-0.011,-0.0107,-0.0133,-0.0133,-0.0133,0,0,0.0242,0.0233,0.0236,0.0222,0.0205,0.0209,0.0169,0.0164,0.0167,0.0099,0.009,0.0046,-0.0006,-0.0024,-0.0038,-0.0053,-0.0083,-0.007,-0.0065,-0.0057,-0.0108,-0.0106,-0.0104,-0.0132,-0.0133,-0.0133,0,0,0.0278,0.0265,0.0284,0.0274,0.0258,0.0237,0.0238,0.0208,0.0196,0.0178,0.0134,0.0095,0.0045,0.0011,-0.0013,0.0003,-0.0049,-0.0007,0.0038,-0.001,-0.0008,-0.0007,-0.0046,-0.0049,-0.0006,-0.0006,-0.0005,0,0.0294,0.0316,0.0286,0.0303,0.0301,0.0255,0.0274,0.0258,0.0221,0.0215,0.0187,0.0115,0.0063,0.0041,0.0044,0.0016,-0.0015,0.0017,-0.0002,-0.0002,-0.0002,-0.0042,-0.0046,-0.0002,-0.0002,-0.0003,-0.0003,0,0.0344,0.0361,0.0372,0.0377,0.0368,0.0379,0.0352,0.0351,0.0322,0.0293,0.0265,0.0193,0.0151,0.0125,0.0086,0.0066,0.0044,0.0013,-0.0017,0.0006,-0.0038,-0.0044,0.0003,0.0002,0.0001,0.0,0,0,0.0386,0.0405,0.041,0.043,0.0411,0.0415,0.0426,0.042,0.0436,0.0379,0.0382,0.0305,0.0259,0.0229,0.0171,0.0122,0.0083,0.0074,0.007,0.0042,-0.0013,-0.0031,-0.0039,0.0051,0.005,0.0049,-0.0042,0,0.0435,0.0489,0.0476,0.0523,0.0549,0.0518,0.054,0.0526,0.0492,0.0484,0.0403,0.0377,0.0302,0.0282,0.0222,0.0121,0.0072,0.0112,-0.0035,-0.0039,-0.0053,-0.0045,-0.0008,-0.0086,-0.0048,-0.0049,-0.0049,0,0.0492,0.0521,0.0576,0.0617,0.0626,0.0642,0.0662,0.0676,0.0647,0.0619,0.0564,0.0498,0.0424,0.0354,0.0197,0.0228,0.012,0.0033,0.0027,-0.0017,-0.0067,-0.0104,-0.0099,-0.006,-0.0059,-0.0058,-0.0057,0,0.0546,0.0596,0.0644,0.0653,0.0685,0.0709,0.0727,0.0716,0.0748,0.07,0.0702,0.0592,0.055,0.0401,0.0222,0.0209,0.0048,0.0002,-0.0114,-0.0117,-0.0128,-0.013,-0.0107,-0.0107,-0.0106,-0.0106,-0.0106,0,0.0607,0.065,0.0679,0.0707,0.0789,0.0776,0.0849,0.085,0.0857,0.0899,0.0779,0.0784,0.056,0.0442,0.0262,0.0066,0.0075,-0.01,-0.0141,-0.0101,-0.0099,-0.0112,-0.0111,-0.011,-0.0109,-0.0108,-0.0108,0,0.0659,0.0675,0.0745,0.0792,0.0819,0.0876,0.0953,0.1002,0.0992,0.104,0.1034,0.0928,0.0771,0.0544,0.03,0.0132,-0.0067,-0.014,-0.0072,-0.0103,-0.0211,-0.0205,-0.0282,-0.0284,-0.0285,-0.0286,-0.0287,0,0.069,0.0731,0.0813,0.0868,0.0892,0.0977,0.1045,0.1072,0.1126,0.1139,0.1173,0.1044,0.0976,0.0615,0.029,-0.0022,-0.0067,-0.0195,-0.0224,-0.0197,-0.0229,-0.0221,-0.0214,-0.0212,-0.0212,-0.0212,-0.0212,0,0.0752,0.0778,0.0834,0.0953,0.1029,0.1131,0.1225,0.13,0.1335,0.1372,0.1405,0.1356,0.1018,0.0708,0.0275,0.0067,-0.0147,-0.0208,-0.02,-0.0168,-0.0137,-0.0166,-0.016,-0.0213,-0.0213,-0.0213,-0.0213,-0.0213,0.0797,0.0853,0.0932,0.1045,0.1143,0.127,0.1369,0.1465,0.158,0.1652,0.1591,0.1517,0.1162,0.0615,0.0236,-0.0163,-0.0145,-0.0283,-0.028,-0.0278,-0.0248,-0.022,-0.0306,-0.0307,-0.0307,-0.0307,-0.0308,0,0.0852,0.0916,0.1021,0.1153,0.1267,0.1314,0.1479,0.1574,0.1718,0.1775,0.1797,0.1457,0.11,0.0682,0.0091,-0.0255,-0.0277,-0.0362,-0.0316,-0.0311,-0.0308,-0.0279,-0.0347,-0.0348,-0.0349,-0.035,0,0,0.0882,0.0982,0.1036,0.1229,0.1331,0.1491,0.1594,0.1733,0.1821,0.1885,0.1842,0.1754,0.1239,0.0806,0.033,-0.0015,-0.0079,-0.0075,-0.0002,0.0116,0.0123,-0.0218,-0.0162,0,0,0,0,0]}],[{"header":{"parameterUnit":"m.s-1","parameterCategory":2,"la1":30.2991,"la2":30.254,"lo1":-89.0895,"lo2":-89.0444,"dy":0.0017,"dx":0.0017,"nx":28,"ny":28,"refTime":"2024-02-06T03:00:00:Z","depth":"4","parameterNumber":2,"parameterNumberName":"U-component_of_CURRENTS"},"data":[0,0,0,0,0,0,0,0,0,0,0,0,0,0,0,0,0,0,0,0,0,0,0,0,0,0,0,0,0,0,0,0,0,0,0,0,0,0,0,0,0,0,0,0,0,0,0,0,0,0,0,0,0,0,0,0,0,0,0.2115,0.2116,0,0.2197,0.2197,0.2198,0.2267,0.2268,0.2269,0.227,0.2362,0.2364,0.2365,0,0,0,0,0,0,0,0,0,0,0,0,0,0.2006,0.2008,0.2115,0.2116,0.2117,0.2197,0.2197,0.2198,0.2267,0.2268,0.227,0.2271,0.2362,0.2364,0.2366,0,0,0,0,0,0,0,0,0,0,0,0,0,0.2064,0.2008,0.2114,0.2163,0.2168,0.2196,0.2197,0.2199,0.2267,0.2268,0.227,0.2271,0.2361,0.2364,0.2366,0.235,0,0,0.2373,0.2374,0,0,0,0,0,0,0,0,0.2061,0.2068,0.2155,0.216,0.2166,0.2226,0.2193,0.2251,0.2266,0.2227,0.227,0.2272,0.2318,0.2324,0.2332,0.2354,0.2358,0.2373,0.2374,0.2375,0.2376,0,0,0,0,0,0,0,0.2057,0.2065,0.2144,0.2156,0.2163,0.2177,0.2187,0.2204,0.2261,0.223,0.2236,0.2249,0.2321,0.233,0.2335,0.2359,0.2373,0.2375,0.2376,0.2377,0.2515,0.2517,0,0,0,0,0,0,0.2052,0.2061,0.2142,0.2147,0.2119,0.2178,0.2189,0.2203,0.2261,0.2272,0.2248,0.2252,0.2325,0.2332,0.2339,0.2449,0.2375,0.2377,0.2379,0.2512,0.2515,0.2518,0,0,0,0,0,0,0.2049,0.2058,0.2139,0.2108,0.212,0.2179,0.2193,0.2204,0.2259,0.2275,0.2286,0.2299,0.2327,0.2335,0.2399,0.2448,0.2378,0.2381,0.251,0.2513,0.2516,0.2588,0,0,0,0,0,0,0.2045,0.2056,0.2086,0.2108,0.2121,0.2187,0.2193,0.2204,0.2263,0.2271,0.2321,0.2328,0.2329,0.2395,0.2401,0.245,0.2382,0.2507,0.2511,0.2515,0.2583,0.2593,0.2603,0,0,0,0,0,0.2041,0.2066,0.2086,0.2098,0.2153,0.2188,0.2197,0.2241,0.2265,0.2296,0.2335,0.2329,0.2427,0.2399,0.2405,0.2456,0.2505,0.251,0.2515,0.2578,0.2591,0.2602,0,0,0,0,0,0,0.2035,0.2077,0.2099,0.2138,0.2177,0.2202,0.2242,0.2266,0.2319,0.2342,0.2353,0.2363,0.2441,0.2437,0.2406,0.2509,0.2467,0.2474,0.2513,0.2526,0.2535,0.2534,0.2384,0,0,0,0,0,0.2046,0.2083,0.2117,0.2156,0.2179,0.2219,0.2248,0.2277,0.2316,0.2344,0.2378,0.2418,0.2457,0.2484,0.2515,0.2564,0.2564,0.2603,0.2613,0.2621,0.2626,0.2671,0.2685,0.2535,0.2534,0.2534,0,0,0.2055,0.2085,0.2108,0.2159,0.2196,0.2232,0.2242,0.2299,0.234,0.2343,0.2425,0.2458,0.248,0.2544,0.2577,0.2552,0.2667,0.2628,0.2635,0.2635,0.2678,0.2693,0.2705,0.2538,0.2537,0.2537,0,0,0.2075,0.2122,0.2154,0.219,0.2253,0.2275,0.2301,0.2353,0.2395,0.2462,0.2484,0.2546,0.2602,0.2628,0.2645,0.2727,0.2721,0.2749,0.2795,0.284,0.2852,0.2863,0.2885,0.2897,0.2749,0.275,0.275,0,0.209,0.2132,0.2171,0.2209,0.2248,0.2298,0.2339,0.2381,0.245,0.2492,0.2504,0.2618,0.2639,0.2711,0.2745,0.2749,0.2769,0.2745,0.2851,0.2862,0.2872,0.2892,0.2905,0.2754,0.2753,0.2753,0.2752,0,0.2116,0.217,0.2197,0.2261,0.2305,0.2355,0.2408,0.2473,0.2531,0.2569,0.2676,0.271,0.2778,0.2798,0.2798,0.2887,0.2878,0.2861,0.2816,0.2891,0.2908,0.292,0.276,0.2758,0.2757,0.2756,0,0,0.2091,0.2195,0.221,0.2251,0.2341,0.237,0.2459,0.2539,0.2605,0.2683,0.2765,0.2842,0.2879,0.2901,0.292,0.2955,0.3041,0.2947,0.2947,0.296,0.3139,0.2955,0.295,0.3052,0.3055,0.3057,0.3122,0,0.2107,0.2178,0.2233,0.2312,0.2352,0.2436,0.2506,0.259,0.2671,0.2762,0.2826,0.2909,0.2912,0.2961,0.3004,0.3039,0.3076,0.3024,0.3071,0.3072,0.2893,0.2959,0.3065,0.3131,0.3133,0.3135,0.3137,0,0.2104,0.2157,0.2234,0.2341,0.2369,0.2429,0.2559,0.2634,0.2768,0.2831,0.2934,0.2987,0.3081,0.3059,0.316,0.3135,0.3151,0.3159,0.3161,0.297,0.291,0.3041,0.3157,0.3156,0.3154,0.3153,0.3152,0,0.204,0.2153,0.2218,0.2255,0.2381,0.245,0.2533,0.2667,0.2748,0.2893,0.2964,0.3071,0.3146,0.3193,0.3237,0.3216,0.3322,0.3286,0.3131,0.3119,0.3232,0.3219,0.3348,0.3347,0.3347,0.3347,0.3347,0,0.2008,0.2065,0.2202,0.2234,0.2327,0.243,0.255,0.2646,0.2795,0.2879,0.3007,0.3073,0.3189,0.3263,0.3274,0.3241,0.3361,0.3147,0.3126,0.326,0.3251,0.324,0.3226,0.335,0.3349,0.3349,0.3348,0,0.1924,0.2017,0.2099,0.2246,0.2302,0.2373,0.256,0.2627,0.279,0.2907,0.296,0.3117,0.3197,0.3283,0.3356,0.3271,0.3262,0.322,0.3369,0.3355,0.3018,0.3008,0.3037,0.3031,0.3027,0.3022,0.3019,0,0.1883,0.192,0.209,0.2143,0.2221,0.2351,0.2427,0.2606,0.2677,0.2898,0.2924,0.308,0.3157,0.3115,0.3215,0.3222,0.3187,0.3156,0.3068,0.301,0.2989,0.2987,0.2983,0.3011,0.301,0.3008,0.3007,0,0.1803,0.1886,0.1952,0.2063,0.2154,0.2244,0.2374,0.2412,0.2601,0.2771,0.2816,0.2859,0.2944,0.2988,0.3025,0.3022,0.3156,0.3103,0.3112,0.3029,0.2979,0.2962,0.2964,0.299,0.2992,0.2994,0.2995,0,0.175,0.1776,0.1875,0.1955,0.2058,0.2094,0.2188,0.226,0.2356,0.2589,0.2596,0.2754,0.2907,0.2887,0.292,0.2908,0.2854,0.2744,0.2771,0.2791,0.2681,0.2579,0.2454,0,0,0,0,0,0.1679,0.1689,0.1754,0.1823,0.1912,0.1976,0.2119,0.2212,0.2397,0.2359,0.2474,0.2534,0.2579,0.2668,0.2605,0.2819,0.2872,0.2734,0.2761,0.2894,0.2914,0.2807,0,0,0,0,0,0,0.1628,0.1684,0.1702,0.1687,0.1708,0.1786,0.187,0.1998,0.1998,0.2195,0.2234,0.238,0.2467,0.2584,0.2554,0.2581,0.2546,0.2843,0.2836,0.2883,0.2901,0.2917,0.2814,0,0,0,0,0]},{"header":{"parameterUnit":"m.s-1","parameterCategory":2,"la1":30.2991,"la2":30.254,"lo1":-89.0895,"lo2":-89.0444,"dy":0.0017,"dx":0.0017,"nx":28,"ny":28,"refTime":"2024-02-06T03:00:00:Z","depth":"4","parameterNumber":3,"parameterNumberName":"V-component_of_CURRENTS"},"data":[0,0,0,0,0,0,0,0,0,0,0,0,0,0,0,0,0,0,0,0,0,0,0,0,0,0,0,0,0,0,0,0,0,0,0,0,0,0,0,0,0,0,0,0,0,0,0,0,0,0,0,0,0,0,0,0,0,0,0.0162,0.0162,0,0.0123,0.0122,0.0122,0.0094,0.0094,0.0094,0.0094,0.0015,0.0013,0.0011,0,0,0,0,0,0,0,0,0,0,0,0,0,0.0176,0.0176,0.0162,0.0162,0.0162,0.0123,0.0122,0.0121,0.0094,0.0094,0.0094,0.0094,0.0016,0.0014,0.0011,0,0,0,0,0,0,0,0,0,0,0,0,0,0.0156,0.0176,0.0162,0.0144,0.0142,0.0123,0.0122,0.0121,0.0094,0.0094,0.0094,0.0094,0.0017,0.0014,0.0011,-0.0004,0,0,0.0002,0.0001,0,0,0,0,0,0,0,0,0.0157,0.0155,0.0147,0.0145,0.0143,0.0114,0.0098,0.0078,0.0094,0.0111,0.0094,0.0093,0.0045,0.004,0.0032,-0.0007,-0.0011,0.0002,-0.0,-0.0001,-0.0002,0,0,0,0,0,0,0,0.0159,0.0157,0.0146,0.0147,0.0144,0.0125,0.0122,0.0094,0.0078,0.011,0.0108,0.0105,0.0044,0.0035,0.003,-0.0012,0.0002,-0.0001,-0.0003,-0.0004,-0.0061,-0.0061,0,0,0,0,0,0,0.0168,0.0158,0.0147,0.0145,0.0151,0.0125,0.0121,0.0123,0.0079,0.0073,0.0105,0.0104,0.004,0.0034,0.0027,0.0021,-0.0001,-0.0004,-0.0006,-0.0061,-0.0061,-0.0061,0,0,0,0,0,0,0.0168,0.0167,0.0148,0.0151,0.0147,0.0125,0.0126,0.0122,0.0115,0.0077,0.007,0.0104,0.004,0.0031,0.0009,0.0017,-0.0006,-0.0008,-0.0062,-0.0061,-0.0061,-0.0001,0,0,0,0,0,0,0.0169,0.0168,0.0174,0.0152,0.0148,0.0145,0.0126,0.0121,0.0114,0.0112,0.0073,0.0065,0.0039,0.0014,0.0006,0.0012,-0.0011,-0.0062,-0.0061,-0.0061,-0.0004,0.0001,0.0005,0,0,0,0,0,0.017,0.0182,0.0175,0.0173,0.0156,0.0145,0.0141,0.0124,0.0115,0.0116,0.009,0.0067,0.0011,0.0012,0.0003,0.0008,-0.0062,-0.0062,-0.0061,-0.0006,0.0,0.0005,0,0,0,0,0,0,0.0191,0.018,0.0171,0.0179,0.0166,0.0141,0.0144,0.0128,0.0109,0.0108,0.0068,0.0059,0.0043,0.0016,0.0018,-0.0007,-0.0029,-0.003,0.0016,0.0021,0.0026,0.0043,-0.0013,0,0,0,0,0,0.0199,0.0206,0.0187,0.0194,0.0191,0.0167,0.0161,0.015,0.0129,0.012,0.0092,0.0063,0.0038,0.0023,-0.0002,-0.0017,-0.0049,-0.002,-0.0015,-0.0012,-0.0003,-0.0047,-0.0046,-0.0059,-0.0059,-0.0059,0,0,0.021,0.0204,0.0208,0.0199,0.0188,0.0192,0.0163,0.0161,0.0166,0.0114,0.0112,0.0077,0.0037,0.0024,0.0014,0.0002,-0.0024,-0.0011,-0.0007,-0.0001,-0.0047,-0.0046,-0.0044,-0.0058,-0.0059,-0.0059,0,0,0.0237,0.023,0.0245,0.0239,0.0229,0.0215,0.0216,0.0196,0.0189,0.0177,0.0144,0.0114,0.0078,0.0051,0.0032,0.0042,0.0001,0.0036,0.007,0.0027,0.0028,0.0028,-0.0008,-0.0012,0.0037,0.0037,0.0037,0,0.025,0.0267,0.0247,0.026,0.0261,0.0229,0.0244,0.0234,0.0209,0.0205,0.0186,0.013,0.0091,0.0072,0.0075,0.0052,0.0025,0.0055,0.0034,0.0033,0.0032,-0.0005,-0.001,0.004,0.0039,0.0039,0.0039,0,0.0286,0.0302,0.0311,0.0317,0.0313,0.0322,0.0305,0.0306,0.0288,0.0267,0.0246,0.0191,0.0158,0.0137,0.0107,0.0087,0.0069,0.0045,0.0023,0.0037,-0.0003,-0.0009,0.0044,0.0043,0.0042,0.0041,0,0,0.0313,0.0334,0.0338,0.0358,0.0346,0.0351,0.0362,0.0359,0.0373,0.0332,0.0335,0.0276,0.024,0.0216,0.0171,0.0129,0.0091,0.0091,0.0087,0.006,0.0003,-0.0006,-0.0014,0.0065,0.0065,0.0064,-0.0022,0,0.0348,0.0392,0.0386,0.0427,0.0448,0.043,0.045,0.0442,0.0416,0.0411,0.035,0.033,0.0273,0.0259,0.0207,0.0123,0.0079,0.0117,-0.0011,-0.0015,-0.0021,-0.002,0.0062,-0.0027,-0.0028,-0.0029,-0.003,0,0.0387,0.0413,0.0459,0.05,0.0509,0.0526,0.0546,0.056,0.0537,0.0519,0.0476,0.0423,0.0362,0.031,0.0175,0.0204,0.0113,0.004,0.0035,0.0003,-0.0035,-0.0047,-0.0041,-0.0041,-0.004,-0.0039,-0.0038,0,0.0421,0.0468,0.051,0.052,0.0554,0.0579,0.0599,0.0591,0.0618,0.0583,0.0585,0.0495,0.0461,0.0337,0.0186,0.018,0.0033,0.0003,-0.0091,-0.0093,-0.0085,-0.0085,-0.0093,-0.0093,-0.0093,-0.0092,-0.0092,0,0.0458,0.0498,0.0537,0.056,0.0633,0.0632,0.0695,0.07,0.0708,0.0738,0.0648,0.0641,0.0466,0.036,0.0213,0.0048,0.0051,-0.0083,-0.0116,-0.0058,-0.0054,-0.009,-0.0088,-0.0096,-0.0095,-0.0094,-0.0094,0,0.0486,0.0509,0.0572,0.0624,0.0653,0.0704,0.0781,0.0818,0.0818,0.0851,0.0848,0.0752,0.061,0.0427,0.0218,0.0095,-0.0072,-0.0132,-0.0047,-0.0075,-0.0177,-0.0171,-0.0244,-0.0245,-0.0246,-0.0247,-0.0247,0,0.0502,0.0536,0.0624,0.0674,0.0703,0.0783,0.0843,0.0875,0.0913,0.0918,0.0937,0.082,0.0729,0.0443,0.0235,-0.0045,-0.009,-0.0177,-0.0189,-0.0167,-0.0192,-0.0185,-0.0178,-0.0249,-0.0249,-0.0249,-0.0249,0,0.0532,0.0567,0.0618,0.0725,0.0798,0.0889,0.097,0.1012,0.1046,0.1046,0.101,0.0857,0.0695,0.0454,0.0237,0.0034,-0.0122,-0.0187,-0.0187,-0.02,-0.0173,-0.0196,-0.0189,-0.0252,-0.0252,-0.0252,-0.0251,0,0.0558,0.0601,0.0676,0.077,0.087,0.0961,0.1006,0.1053,0.1097,0.1094,0.108,0.09,0.0795,0.0495,0.0297,0.0093,0.0032,-0.0041,-0.005,-0.0049,0.0024,0.0087,0.0064,0,0,0,0,0,0.0575,0.0626,0.0715,0.0818,0.0917,0.098,0.1077,0.1108,0.1144,0.1128,0.1108,0.0956,0.0659,0.0536,0.0331,0.026,-0.0014,0.0011,-0.0105,-0.0269,-0.0266,-0.0215,0,0,0,0,0,0,0.0587,0.0666,0.0711,0.084,0.0916,0.1028,0.1094,0.1118,0.1116,0.1117,0.0969,0.0894,0.0611,0.0776,0.0325,0.0263,0.0158,-0.0125,-0.013,-0.0271,-0.0268,-0.0265,-0.0212,0,0,0,0,0]}]]